Regional Weather Roundup
Issued by NWS

Home | Current Version | Previous Version | Graphics & Text | Print | Product List | Glossary Off
Versions: 1 2 3 4 5 6 7 8 9 10 11 12 13 14 15 16 17 18 19 20 21 22 23 24 25 26 27 28 29 30 31 32 33 34 35 36 37 38 39 40 41 42 43 44 45 46 47 48 49 50

000
ASUS43 KDMX 171807
RWRIA

WEATHER ROUNDUP FOR IOWA
NATIONAL WEATHER SERVICE DES MOINES IA
100 PM CDT WED SEP 17 2014

NOTE: "FAIR" INDICATES FEW OR NO CLOUDS BELOW 12,000 FEET WITH NO
SIGNIFICANT WEATHER AND/OR OBSTRUCTIONS TO VISIBILITY.

* - THESE STATIONS ARE NOT NWS STATIONS...THUS NOT UNDER NWS
QUALITY CONTROL.  THEY ALSO DO NOT REPORT WEATHER SUCH
AS PRECIPITATION OR FOG.

IAZ001>003-012>014-020>022-031>034-043>046-171900-
   NORTHWEST IOWA

CITY           SKY/WX    TMP DP  RH WIND       PRES   REMARKS
CARROLL *      SUNNY     73  54  49 VRB5      29.94F
CHEROKEE *       N/A     74  58  58 SE5       29.94S
DENISON *      SUNNY     73  59  60 VRB5      29.92F
LE MARS *      SUNNY     73  59  60 CALM      29.93S
ORANGE CITY *  SUNNY     73  55  53 S5        29.93S
SHELDON *      SUNNY     73  57  56 VRB5      29.93S
SIOUX CITY       N/A     75  59  57 SE5       29.93S
6HR MIN TEMP:  53; 6HR MAX TEMP:  75;

SPENCER          N/A     73  58  59 SE6       29.94F
6HR MIN TEMP:  48; 6HR MAX TEMP:  73;

STORM LAKE *   SUNNY     72  59  64 SE5       29.94F
$$

IAZ055>058-069>071-079>083-090>094-171900-
   SOUTHWEST IOWA

CITY           SKY/WX    TMP DP  RH WIND       PRES   REMARKS
ATLANTIC *     SUNNY     73  59  60 VRB5      29.93F
AUDUBON *      SUNNY     73  55  53 NE6       29.96S
CLARINDA *     SUNNY     75  63  64 VRB7      29.95F
COUNCIL BLFS * SUNNY     75  63  64 E7G13     29.93S
CRESTON *      CLOUDY    72  59  64 VRB5G12   29.95F
HARLAN  *      SUNNY     75  61  60 VRB3G12   29.97S
LAMONI         PTSUNNY   71  61  70 SE6       29.96S
6HR MIN TEMP:  57; 6HR MAX TEMP:  71;

SHENANDOAH *   SUNNY     73  63  68 VRB7      29.94F
$$

IAZ047>049-059>061-072>074-084-171900-
   CENTRAL IOWA

CITY           SKY/WX    TMP DP  RH WIND       PRES   REMARKS
AMES             N/A     72  57  59 SE5       29.96F
6HR MIN TEMP:  51; 6HR MAX TEMP:  72;

ANKENY *       PTSUNNY   70  59  68 SE5       29.96S
CHARITON *     MOSUNNY   72  57  60 E7        29.96S
DES MOINES       N/A     73  56  54 VRB3      29.96S
6HR MIN TEMP:  57; 6HR MAX TEMP:  74;

GRINNELL*      CLOUDY    68  55  64 SE6       29.98F
KNOXVILLE *    SUNNY     70  57  64 VRB3      29.95F
MARSHALLTOWN     N/A     68  54  60 S6        29.97F
6HR MIN TEMP:  44; 6HR MAX TEMP:  68;

PELLA *          N/A     72  57  58 SE5       29.98F
PERRY *        PTSUNNY   73  57  56 E6        29.96S
$$

IAZ004>006-015-016-023>025-035-036-171900-
   NORTH CENTRAL IOWA

CITY           SKY/WX    TMP DP  RH WIND       PRES   REMARKS
ALGONA *       SUNNY     72  54  53 VRB6      29.96S
CLARION *        N/A     72  52  49 CALM      29.96F
ESTHERVILLE      N/A     71  57  61 VRB5      29.94F
6HR MIN TEMP:  46; 6HR MAX TEMP:  71;

FORT DODGE *     N/A     72  55  56 S3        29.96F
MASON CITY       N/A     70  51  51 VRB3      29.98F
6HR MIN TEMP:  48; 6HR MAX TEMP:  71;

FOREST CITY *  SUNNY     70  52  52 CALM      29.96F
IOWA FALLS *     N/A     70  52  52 CALM      29.98F
$$

IAZ007>011-017>019-026>030-037>042-050>054-066-171900-
   NORTHEAST IOWA

CITY           SKY/WX    TMP DP  RH WIND       PRES   REMARKS
CEDAR RAPIDS     N/A     67  57  70 S9        29.99S
6HR MIN TEMP:  44; 6HR MAX TEMP:  67;

CHARLES CITY * SUNNY     66  50  55 VRB5      29.99S
CLINTON *      PTSUNNY   66  52  59 S8        30.04F
DECORAH *      SUNNY     66  50  55 CALM      29.98F
DUBUQUE        PTSUNNY   65  49  56 SW5       30.01F
6HR MIN TEMP:  45; 6HR MAX TEMP:  65;

MONTICELLO *   MOSUNNY   68  52  56 CALM      30.00S
OELWEIN *      MOSUNNY   68  50  52 VRB6      30.00S
WATERLOO         N/A     68  51  54 SE6       29.98S
6HR MIN TEMP:  45; 6HR MAX TEMP:  69;

$$

IAZ064-065-067-068-078-171900-
   EAST CENTRAL IOWA

CITY           SKY/WX    TMP DP  RH WIND       PRES   REMARKS
DAVENPORT      CLOUDY    66  51  58 S7        30.02S
6HR MIN TEMP:  46; 6HR MAX TEMP:  66;

IOWA CITY        N/A     67  57  70 SE8       30.00F
6HR MIN TEMP:  47; 6HR MAX TEMP:  67;

MT. PLEASANT * CLOUDY    65  54  67 SE7       30.00F
MUSCATINE *    CLOUDY    66  54  63 SE8       30.00F
QUAD CITIES    CLOUDY    66  52  60 S3        30.01S
6HR MIN TEMP:  46; 6HR MAX TEMP:  66;

$$

IAZ062-063-075>077-085>089-095>099-171900-
   SOUTHEAST IOWA

CITY           SKY/WX    TMP DP  RH WIND       PRES   REMARKS
BURLINGTON     PTSUNNY   65  56  72 SE10      30.01S
6HR MIN TEMP:  53; 6HR MAX TEMP:  65; 6HR PCP: TRACE;

FAIRFIELD *    CLOUDY    68  57  68 S8        29.99F
FORT MADISON * MOSUNNY   66  55  68 SE8       30.01S
KEOKUK *       CLOUDY    63  57  82 SE5       29.99F
OSKALOOSA *    PTSUNNY   70  58  66 SE6       29.98S
CENTERVILLE *  MOSUNNY   70  61  73 E7        29.98S
OTTUMWA          N/A     68  56  65 VRB7      29.97F
6HR MIN TEMP:  54; 6HR MAX TEMP:  70;

WASHINGTON *   CLOUDY    68  57  68 S9        29.99F
$$

ABBREVIATIONS USED IN REMARKS
   TC - TEMPERATURES IN CELSIUS
  WCI - WIND CHILL INDEX
   HX - HEAT INDEX
  VSB - VISIBILITY
$$




USA.gov is the U.S. government's official web portal to all federal, state and local government web resources and services.